User: anonymous   Login
Location: Warwick
(41.7000°N, 71.4170°W)
Time: 13:48:28
(UTC-05:00)
Language:

Hubble Space Telescope - Orbit

View from above orbital plane
View from above orbital plane
View from above satellite
View from above satellite

Ground track
Ground track

The orbit data is extracted from the following two-line orbital elements,

1 20580U 90037B   17323.73060315 +.00000738 +00000-0 +34492-4 0  9999
2 20580 028.4703 059.6131 0002931 048.8696 082.4947 15.08923124313716
Epoch (UTC): 19 November 2017 17:32:04
Eccentricity: 0.0002931
inclination: 28.4703°
perigee height: 537 km
apogee height: 541 km
right ascension of ascending node: 59.6131°
argument of perigee: 48.8696°
revolutions per day: 15.08923124
mean anomaly at epoch: 82.4947°
orbit number at epoch: 31371

The dashed part of the orbit path shows where the satellite is in the earth's shadow,  

DLR